{"data":{"norad_id":43753,"intl_designator":"2018-097C","name":"COSMOS 2532 (RODNIK-S *)","alt_names":[],"object_type":"PAYLOAD","status":"ACTIVE","operator":null,"country":"CIS","launch_date":"2018-11-30","launch_site_code":"PLMSC","launch_vehicle":null,"mission":null,"orbit_class":"UNKNOWN","rcs_meters":null,"size_class":null,"mass_kg":null,"dimensions":null,"purposes":[],"wikipedia_slug":null,"has_3d_model":false,"image_url":null,"decayed_at":null,"tle_current":{"epoch":"2026-09-20T04:05:28.175136Z","epoch_age_seconds":68560,"freshness":"FRESH","line1":"1 43753U 18097C   26263.17046499  .00000019  00000+0  69479-4 0  9994","line2":"2 43753  82.5169 163.1826 0016858 208.0555 151.9618 12.42912033354072","mean_motion":12.42912033,"eccentricity":0.0016858,"inclination_deg":82.5169,"raan_deg":163.1826,"arg_perigee_deg":208.0555,"mean_anomaly_deg":151.9618,"bstar":6.9479e-5,"rev_number":35407,"period_min":115.85695220315,"perigee_km":1481.0114982914,"apogee_km":1507.5541489687,"semimajor_km":7872.41982363,"source":"CELESTRAK","updated_at":"2026-09-20T09:00:14.399563Z"}}}